Time,TemperatureF,DewpointF,PressureIn,WindDirection,WindDirectionDegrees,WindSpeedMPH,WindSpeedGustMPH,Humidity,HourlyPrecipIn,Conditions,Clouds,dailyrainin,SoftwareType,DateUTC
2013-08-12 00:00:00,61.7,48.1,30.03,NNW,329,0.0,0.0,61,0.00,,,-99.99,Weather View 32 v70,2013-08-12 05:00:00,
2013-08-12 00:05:00,61.5,48.3,30.03,NNW,329,0.0,0.0,62,0.00,,,-99.99,Weather View 32 v70,2013-08-12 05:05:00,
2013-08-12 00:15:00,61.3,48.6,30.03,NNW,329,0.0,0.0,63,0.00,,,-99.99,Weather View 32 v70,2013-08-12 05:15:00,
2013-08-12 00:20:00,61.2,48.4,30.03,NNW,329,0.0,0.0,63,0.00,,,-99.99,Weather View 32 v70,2013-08-12 05:20:00,
2013-08-12 00:25:00,61.0,48.7,30.03,NNW,329,0.0,0.0,64,0.00,,,-99.99,Weather View 32 v70,2013-08-12 05:25:00,
2013-08-12 00:30:00,60.8,48.9,30.03,NNW,329,0.0,0.0,65,0.00,,,-99.99,Weather View 32 v70,2013-08-12 05:30:00,
2013-08-12 00:35:00,60.6,49.2,30.03,NNW,329,0.0,0.0,66,0.00,,,-99.99,Weather View 32 v70,2013-08-12 05:35:00,
2013-08-12 00:40:00,60.4,49.0,30.03,NNW,329,0.0,0.0,66,0.00,,,-99.99,Weather View 32 v70,2013-08-12 05:40:00,
2013-08-12 00:50:00,60.3,49.2,30.06,NNW,329,0.0,0.0,67,0.00,,,-99.99,Weather View 32 v70,2013-08-12 05:50:00,
2013-08-12 00:55:00,60.3,49.6,30.06,NNW,329,0.0,0.0,68,0.00,,,-99.99,Weather View 32 v70,2013-08-12 05:55:00,
2013-08-12 01:00:00,60.3,50.0,30.06,NNW,329,0.0,0.0,69,0.00,,,-99.99,Weather View 32 v70,2013-08-12 06:00:00,
2013-08-12 01:05:00,60.3,50.0,30.06,NNW,329,0.0,0.0,69,0.00,,,-99.99,Weather View 32 v70,2013-08-12 06:05:00,
2013-08-12 01:15:00,60.3,50.4,30.06,NNW,329,3.0,4.0,70,0.00,,,-99.99,Weather View 32 v70,2013-08-12 06:15:00,
2013-08-12 01:25:00,59.5,50.1,30.06,NNW,329,0.0,4.0,71,0.00,,,-99.99,Weather View 32 v70,2013-08-12 06:25:00,
2013-08-12 01:30:00,59.4,49.9,30.06,NNW,329,0.0,4.0,71,0.00,,,-99.99,Weather View 32 v70,2013-08-12 06:30:00,
2013-08-12 01:35:00,59.2,49.8,30.06,NNW,329,0.0,4.0,71,0.00,,,-99.99,Weather View 32 v70,2013-08-12 06:35:00,
2013-08-12 01:45:00,58.8,49.8,30.06,NNW,329,0.0,4.0,72,0.00,,,-99.99,Weather View 32 v70,2013-08-12 06:45:00,
2013-08-12 01:50:00,58.6,50.0,30.06,NNW,329,0.0,4.0,73,0.00,,,-99.99,Weather View 32 v70,2013-08-12 06:50:00,
2013-08-12 01:55:00,58.5,49.8,30.06,NNW,329,0.0,4.0,73,0.00,,,-99.99,Weather View 32 v70,2013-08-12 06:55:00,
2013-08-12 02:00:00,58.5,49.8,30.06,NNW,329,0.0,4.0,73,0.00,,,-99.99,Weather View 32 v70,2013-08-12 07:00:00,
2013-08-12 02:05:00,58.5,50.2,30.06,NNW,329,0.0,4.0,74,0.00,,,-99.99,Weather View 32 v70,2013-08-12 07:05:00,
2013-08-12 02:15:00,58.5,50.2,30.06,NNW,329,0.0,4.0,74,0.00,,,-99.99,Weather View 32 v70,2013-08-12 07:15:00,
2013-08-12 02:20:00,58.6,50.4,30.06,NNW,329,0.0,3.0,74,0.00,,,-99.99,Weather View 32 v70,2013-08-12 07:20:00,
2013-08-12 02:25:00,58.6,50.4,30.06,NNW,329,0.0,3.0,74,0.00,,,-99.99,Weather View 32 v70,2013-08-12 07:25:00,
2013-08-12 02:35:00,58.6,50.7,30.06,NNW,329,0.0,3.0,75,0.00,,,-99.99,Weather View 32 v70,2013-08-12 07:35:00,
2013-08-12 02:40:00,58.6,50.7,30.06,NNW,329,0.0,0.0,75,0.00,,,-99.99,Weather View 32 v70,2013-08-12 07:40:00,
2013-08-12 02:45:00,58.6,50.7,30.06,NNW,329,0.0,0.0,75,0.00,,,-99.99,Weather View 32 v70,2013-08-12 07:45:00,
2013-08-12 02:55:00,58.5,50.9,30.06,NNW,329,0.0,0.0,76,0.00,,,-99.99,Weather View 32 v70,2013-08-12 07:55:00,
2013-08-12 03:00:00,58.5,50.9,30.06,NNW,329,0.0,0.0,76,0.00,,,-99.99,Weather View 32 v70,2013-08-12 08:00:00,
2013-08-12 03:05:00,58.3,50.7,30.06,NNW,329,0.0,0.0,76,0.00,,,-99.99,Weather View 32 v70,2013-08-12 08:05:00,
2013-08-12 03:10:00,58.3,50.7,30.06,NNW,329,0.0,0.0,76,0.00,,,-99.99,Weather View 32 v70,2013-08-12 08:10:00,
2013-08-12 03:20:00,58.1,50.6,30.06,NNW,329,0.0,0.0,76,0.00,,,-99.99,Weather View 32 v70,2013-08-12 08:20:00,
2013-08-12 03:25:00,57.9,50.4,30.06,NNW,329,0.0,0.0,76,0.00,,,-99.99,Weather View 32 v70,2013-08-12 08:25:00,
2013-08-12 03:30:00,57.9,50.4,30.06,NNW,329,0.0,0.0,76,0.00,,,-99.99,Weather View 32 v70,2013-08-12 08:30:00,
2013-08-12 03:35:00,57.6,50.0,30.06,NNW,329,0.0,0.0,76,0.00,,,-99.99,Weather View 32 v70,2013-08-12 08:35:00,
2013-08-12 03:40:00,57.4,49.9,30.06,NNW,329,0.0,0.0,76,0.00,,,-99.99,Weather View 32 v70,2013-08-12 08:40:00,
2013-08-12 03:45:00,57.2,49.7,30.06,NNW,329,0.0,0.0,76,0.00,,,-99.99,Weather View 32 v70,2013-08-12 08:45:00,
2013-08-12 03:50:00,57.0,49.9,30.06,NNW,329,0.0,0.0,77,0.00,,,-99.99,Weather View 32 v70,2013-08-12 08:50:00,
2013-08-12 03:55:00,57.0,49.9,30.06,NNW,329,0.0,0.0,77,0.00,,,-99.99,Weather View 32 v70,2013-08-12 08:55:00,
2013-08-12 04:00:00,57.0,50.2,30.06,NNW,329,0.0,0.0,78,0.00,,,-99.99,Weather View 32 v70,2013-08-12 09:00:00,
2013-08-12 04:05:00,57.2,50.0,30.06,NNW,329,0.0,0.0,77,0.00,,,-99.99,Weather View 32 v70,2013-08-12 09:05:00,
2013-08-12 04:15:00,57.0,50.2,30.06,NNW,329,0.0,0.0,78,0.00,,,-99.99,Weather View 32 v70,2013-08-12 09:15:00,
2013-08-12 04:20:00,56.8,50.0,30.06,NNW,329,0.0,0.0,78,0.00,,,-99.99,Weather View 32 v70,2013-08-12 09:20:00,
2013-08-12 04:25:00,56.7,49.9,30.06,NNW,329,0.0,0.0,78,0.00,,,-99.99,Weather View 32 v70,2013-08-12 09:25:00,
2013-08-12 04:30:00,56.7,49.9,30.03,NNW,329,0.0,0.0,78,0.00,,,-99.99,Weather View 32 v70,2013-08-12 09:30:00,
2013-08-12 04:35:00,56.5,49.7,30.03,NNW,329,0.0,0.0,78,0.00,,,-99.99,Weather View 32 v70,2013-08-12 09:35:00,
2013-08-12 04:40:00,56.5,50.0,30.03,NNW,329,0.0,0.0,79,0.00,,,-99.99,Weather View 32 v70,2013-08-12 09:40:00,
2013-08-12 04:50:00,56.3,49.9,30.03,NNW,329,0.0,0.0,79,0.00,,,-99.99,Weather View 32 v70,2013-08-12 09:50:00,
2013-08-12 04:55:00,56.3,49.9,30.03,NNW,329,0.0,0.0,79,0.00,,,-99.99,Weather View 32 v70,2013-08-12 09:55:00,
2013-08-12 05:00:00,56.3,49.9,30.03,NNW,329,0.0,0.0,79,0.00,,,-99.99,Weather View 32 v70,2013-08-12 10:00:00,
2013-08-12 05:05:00,56.1,49.7,30.03,NNW,329,0.0,0.0,79,0.00,,,-99.99,Weather View 32 v70,2013-08-12 10:05:00,
2013-08-12 05:15:00,55.9,49.8,30.03,NNW,329,0.0,0.0,80,0.00,,,-99.99,Weather View 32 v70,2013-08-12 10:15:00,
2013-08-12 05:20:00,55.9,49.8,30.03,NNW,329,0.0,0.0,80,0.00,,,-99.99,Weather View 32 v70,2013-08-12 10:20:00,
2013-08-12 05:30:00,55.8,49.7,30.03,NNW,329,0.0,0.0,80,0.00,,,-99.99,Weather View 32 v70,2013-08-12 10:30:00,
2013-08-12 05:35:00,55.8,49.7,30.03,NNW,329,0.0,0.0,80,0.00,,,-99.99,Weather View 32 v70,2013-08-12 10:35:00,
2013-08-12 05:40:00,55.8,49.7,30.03,NNW,329,0.0,0.0,80,0.00,,,-99.99,Weather View 32 v70,2013-08-12 10:40:00,
2013-08-12 05:45:00,55.6,49.5,30.03,NNW,329,0.0,0.0,80,0.00,,,-99.99,Weather View 32 v70,2013-08-12 10:45:00,
2013-08-12 05:50:00,55.4,49.7,30.03,NNW,329,0.0,0.0,81,0.00,,,-99.99,Weather View 32 v70,2013-08-12 10:50:00,
2013-08-12 05:55:00,55.4,49.7,30.03,NNW,329,0.0,0.0,81,0.00,,,-99.99,Weather View 32 v70,2013-08-12 10:55:00,
2013-08-12 06:00:00,55.2,49.5,30.06,NNW,329,0.0,0.0,81,0.00,,,-99.99,Weather View 32 v70,2013-08-12 11:00:00,
2013-08-12 06:05:00,55.2,49.5,30.06,NNW,329,0.0,0.0,81,0.00,,,-99.99,Weather View 32 v70,2013-08-12 11:05:00,
2013-08-12 06:10:00,55.0,49.3,30.06,NNW,329,0.0,0.0,81,0.00,,,-99.99,Weather View 32 v70,2013-08-12 11:10:00,
2013-08-12 06:20:00,54.9,49.5,30.06,NNW,329,0.0,0.0,82,0.00,,,-99.99,Weather View 32 v70,2013-08-12 11:20:00,
2013-08-12 06:30:00,54.9,49.5,30.06,NNW,329,0.0,0.0,82,0.00,,,-99.99,Weather View 32 v70,2013-08-12 11:30:00,
2013-08-12 06:35:00,54.9,49.5,30.06,NNW,329,0.0,0.0,82,0.00,,,-99.99,Weather View 32 v70,2013-08-12 11:35:00,
2013-08-12 06:45:00,54.7,49.3,30.06,NNW,329,0.0,0.0,82,0.00,,,-99.99,Weather View 32 v70,2013-08-12 11:45:00,
2013-08-12 06:50:00,54.5,49.1,30.06,NNW,329,0.0,0.0,82,0.00,,,-99.99,Weather View 32 v70,2013-08-12 11:50:00,
2013-08-12 06:55:00,54.5,49.1,30.06,NNW,329,0.0,0.0,82,0.00,,,-99.99,Weather View 32 v70,2013-08-12 11:55:00,
2013-08-12 07:00:00,54.5,49.1,30.06,NNW,328,0.0,0.0,82,0.00,,,-99.99,Weather View 32 v70,2013-08-12 12:00:00,
2013-08-12 07:05:00,54.9,49.8,30.06,NNW,328,0.0,0.0,83,0.00,,,-99.99,Weather View 32 v70,2013-08-12 12:05:00,
2013-08-12 07:10:00,55.4,50.3,30.06,NNW,329,0.0,0.0,83,0.00,,,-99.99,Weather View 32 v70,2013-08-12 12:10:00,
2013-08-12 07:20:00,55.8,50.7,30.06,NNW,329,0.0,0.0,83,0.00,,,-99.99,Weather View 32 v70,2013-08-12 12:20:00,
2013-08-12 07:30:00,56.1,51.0,30.06,NNW,329,0.0,0.0,83,0.00,,,-99.99,Weather View 32 v70,2013-08-12 12:30:00,
2013-08-12 07:40:00,56.7,51.5,30.06,NNW,329,0.0,0.0,83,0.00,,,-99.99,Weather View 32 v70,2013-08-12 12:40:00,
2013-08-12 07:45:00,57.0,52.2,30.06,NNW,328,3.0,3.0,84,0.00,,,-99.99,Weather View 32 v70,2013-08-12 12:45:00,
2013-08-12 07:50:00,57.2,52.1,30.06,NNW,329,0.0,3.0,83,0.00,,,-99.99,Weather View 32 v70,2013-08-12 12:50:00,
2013-08-12 07:55:00,57.6,52.4,30.06,NNW,329,0.0,3.0,83,0.00,,,-99.99,Weather View 32 v70,2013-08-12 12:55:00,
2013-08-12 08:00:00,57.9,52.8,30.06,NNW,329,0.0,3.0,83,0.00,,,-99.99,Weather View 32 v70,2013-08-12 13:00:00,
2013-08-12 08:05:00,58.3,53.5,30.06,NNW,329,3.0,4.0,84,0.00,,,-99.99,Weather View 32 v70,2013-08-12 13:05:00,
2013-08-12 08:10:00,58.8,54.0,30.06,West,281,3.0,4.0,84,0.00,,,-99.99,Weather View 32 v70,2013-08-12 13:10:00,
2013-08-12 08:15:00,59.2,54.0,30.06,WNW,292,2.0,4.0,83,0.00,,,-99.99,Weather View 32 v70,2013-08-12 13:15:00,
2013-08-12 08:20:00,59.5,54.4,30.06,WNW,302,3.0,4.0,83,0.00,,,-99.99,Weather View 32 v70,2013-08-12 13:20:00,
2013-08-12 08:25:00,60.1,54.9,30.06,WNW,303,0.0,4.0,83,0.00,,,-99.99,Weather View 32 v70,2013-08-12 13:25:00,
2013-08-12 08:35:00,60.8,55.3,30.06,NNW,327,3.0,6.0,82,0.00,,,-99.99,Weather View 32 v70,2013-08-12 13:35:00,
2013-08-12 08:40:00,61.2,55.6,30.06,NNW,328,3.0,6.0,82,0.00,,,-99.99,Weather View 32 v70,2013-08-12 13:40:00,
2013-08-12 08:45:00,61.7,55.8,30.06,NNW,328,0.0,6.0,81,0.00,,,-99.99,Weather View 32 v70,2013-08-12 13:45:00,
2013-08-12 08:50:00,62.2,56.0,30.06,NNW,327,4.0,6.0,80,0.00,,,-99.99,Weather View 32 v70,2013-08-12 13:50:00,
2013-08-12 08:55:00,62.8,56.2,30.06,NNW,328,3.0,6.0,79,0.00,,,-99.99,Weather View 32 v70,2013-08-12 13:55:00,
2013-08-12 09:05:00,63.7,55.2,30.06,NW,311,4.0,6.0,74,0.00,,,-99.99,Weather View 32 v70,2013-08-12 14:05:00,
2013-08-12 09:10:00,64.2,55.4,30.06,NW,312,2.0,6.0,73,0.00,,,-99.99,Weather View 32 v70,2013-08-12 14:10:00,
2013-08-12 09:15:00,64.8,55.5,30.06,NW,312,3.0,6.0,72,0.00,,,-99.99,Weather View 32 v70,2013-08-12 14:15:00,
2013-08-12 09:20:00,65.3,55.2,30.06,NW,313,3.0,6.0,70,0.00,,,-99.99,Weather View 32 v70,2013-08-12 14:20:00,
2013-08-12 09:30:00,66.6,54.8,30.06,NW,322,3.0,6.0,66,0.00,,,-99.99,Weather View 32 v70,2013-08-12 14:30:00,
2013-08-12 09:35:00,66.9,54.7,30.06,NNW,339,3.0,5.0,65,0.00,,,-99.99,Weather View 32 v70,2013-08-12 14:35:00,
2013-08-12 09:40:00,67.6,54.1,30.06,WNW,295,0.0,5.0,62,0.00,,,-99.99,Weather View 32 v70,2013-08-12 14:40:00,
2013-08-12 09:45:00,68.2,53.3,30.06,West,279,3.0,6.0,59,0.00,,,-99.99,Weather View 32 v70,2013-08-12 14:45:00,
2013-08-12 09:50:00,68.5,52.2,30.06,NW,304,5.0,6.0,56,0.00,,,-99.99,Weather View 32 v70,2013-08-12 14:50:00,
2013-08-12 09:55:00,68.7,50.3,30.06,West,263,3.0,6.0,52,0.00,,,-99.99,Weather View 32 v70,2013-08-12 14:55:00,
2013-08-12 10:00:00,69.1,49.6,30.06,NW,317,4.0,6.0,50,0.00,,,-99.99,Weather View 32 v70,2013-08-12 15:00:00,
2013-08-12 10:05:00,69.4,50.5,30.06,NW,317,5.0,6.0,51,0.00,,,-99.99,Weather View 32 v70,2013-08-12 15:05:00,
2013-08-12 10:10:00,70.0,51.0,30.06,NW,304,5.0,6.0,51,0.00,,,-99.99,Weather View 32 v70,2013-08-12 15:10:00,
2013-08-12 10:20:00,70.5,49.8,30.06,NW,311,4.0,6.0,48,0.00,,,-99.99,Weather View 32 v70,2013-08-12 15:20:00,
2013-08-12 10:30:00,71.1,49.8,30.06,NW,323,3.0,8.0,47,0.00,,,-99.99,Weather View 32 v70,2013-08-12 15:30:00,
2013-08-12 10:35:00,71.6,49.7,30.06,NW,317,3.0,8.0,46,0.00,,,-99.99,Weather View 32 v70,2013-08-12 15:35:00,
2013-08-12 10:40:00,72.1,50.2,30.06,NNW,340,3.0,8.0,46,0.00,,,-99.99,Weather View 32 v70,2013-08-12 15:40:00,
2013-08-12 10:45:00,72.5,49.3,30.06,WNW,298,3.0,8.0,44,0.00,,,-99.99,Weather View 32 v70,2013-08-12 15:45:00,
2013-08-12 10:55:00,73.0,49.2,30.06,NNW,334,4.0,8.0,43,0.00,,,-99.99,Weather View 32 v70,2013-08-12 15:55:00,
2013-08-12 11:00:00,73.2,49.3,30.06,WNW,300,4.0,8.0,43,0.00,,,-99.99,Weather View 32 v70,2013-08-12 16:00:00,
2013-08-12 11:10:00,73.6,49.0,30.06,WNW,282,5.0,8.0,42,0.00,,,-99.99,Weather View 32 v70,2013-08-12 16:10:00,
2013-08-12 11:15:00,73.8,48.5,30.06,WNW,301,3.0,8.0,41,0.00,,,-99.99,Weather View 32 v70,2013-08-12 16:15:00,
2013-08-12 11:20:00,74.1,48.8,30.06,NW,304,3.0,8.0,41,0.00,,,-99.99,Weather View 32 v70,2013-08-12 16:20:00,
2013-08-12 11:25:00,74.3,49.7,30.06,WNW,294,4.0,7.0,42,0.00,,,-99.99,Weather View 32 v70,2013-08-12 16:25:00,
2013-08-12 11:30:00,74.5,49.2,30.06,WNW,299,6.0,7.0,41,0.00,,,-99.99,Weather View 32 v70,2013-08-12 16:30:00,
2013-08-12 11:35:00,74.7,49.3,30.06,WNW,303,6.0,7.0,41,0.00,,,-99.99,Weather View 32 v70,2013-08-12 16:35:00,
2013-08-12 11:40:00,74.8,49.5,30.06,WNW,289,5.0,8.0,41,0.00,,,-99.99,Weather View 32 v70,2013-08-12 16:40:00,
2013-08-12 11:50:00,75.4,49.3,30.06,NW,304,4.0,8.0,40,0.00,,,-99.99,Weather View 32 v70,2013-08-12 16:50:00,
2013-08-12 11:55:00,75.4,48.6,30.06,NNW,343,5.0,8.0,39,0.00,,,-99.99,Weather View 32 v70,2013-08-12 16:55:00,
2013-08-12 12:00:00,75.6,48.1,30.06,NW,314,5.0,8.0,38,0.00,,,-99.99,Weather View 32 v70,2013-08-12 17:00:00,
2013-08-12 12:10:00,76.1,49.3,30.06,WNW,302,5.0,10.0,39,0.00,,,-99.99,Weather View 32 v70,2013-08-12 17:10:00,
2013-08-12 12:15:00,76.3,50.1,30.06,NW,322,5.0,10.0,40,0.00,,,-99.99,Weather View 32 v70,2013-08-12 17:15:00,
2013-08-12 12:20:00,76.6,50.4,30.06,West,275,4.0,10.0,40,0.00,,,-99.99,Weather View 32 v70,2013-08-12 17:20:00,
2013-08-12 12:25:00,76.8,49.2,30.06,NNW,330,4.0,10.0,38,0.00,,,-99.99,Weather View 32 v70,2013-08-12 17:25:00,
2013-08-12 12:35:00,76.8,48.5,30.06,NW,312,4.0,10.0,37,0.00,,,-99.99,Weather View 32 v70,2013-08-12 17:35:00,
2013-08-12 12:40:00,77.0,48.7,30.06,NW,308,6.0,10.0,37,0.00,,,-99.99,Weather View 32 v70,2013-08-12 17:40:00,
2013-08-12 12:45:00,77.0,47.9,30.06,NNW,338,6.0,10.0,36,0.00,,,-99.99,Weather View 32 v70,2013-08-12 17:45:00,
2013-08-12 12:50:00,76.8,47.8,30.06,WNW,287,6.0,10.0,36,0.00,,,-99.99,Weather View 32 v70,2013-08-12 17:50:00,
2013-08-12 12:55:00,76.8,48.5,30.06,NW,311,4.0,10.0,37,0.00,,,-99.99,Weather View 32 v70,2013-08-12 17:55:00,
2013-08-12 13:00:00,77.4,49.0,30.06,WNW,293,5.0,10.0,37,0.00,,,-99.99,Weather View 32 v70,2013-08-12 18:00:00,
2013-08-12 13:10:00,77.5,47.6,30.06,NW,315,4.0,9.0,35,0.00,,,-99.99,Weather View 32 v70,2013-08-12 18:10:00,
2013-08-12 13:15:00,77.2,48.1,30.06,NW,316,6.0,9.0,36,0.00,,,-99.99,Weather View 32 v70,2013-08-12 18:15:00,
2013-08-12 13:25:00,77.4,48.2,30.06,West,275,5.0,9.0,36,0.00,,,-99.99,Weather View 32 v70,2013-08-12 18:25:00,
2013-08-12 13:35:00,77.4,49.0,30.06,NW,321,4.0,9.0,37,0.00,,,-99.99,Weather View 32 v70,2013-08-12 18:35:00,
2013-08-12 13:40:00,77.5,48.4,30.06,WNW,282,3.0,9.0,36,0.00,,,-99.99,Weather View 32 v70,2013-08-12 18:40:00,
2013-08-12 13:45:00,77.9,48.7,30.06,NW,322,8.0,9.0,36,0.00,,,-99.99,Weather View 32 v70,2013-08-12 18:45:00,
2013-08-12 13:55:00,77.5,47.6,30.06,NNW,333,4.0,9.0,35,0.00,,,-99.99,Weather View 32 v70,2013-08-12 18:55:00,
2013-08-12 14:00:00,78.4,49.2,30.06,NNW,343,3.0,9.0,36,0.00,,,-99.99,Weather View 32 v70,2013-08-12 19:00:00,
2013-08-12 14:10:00,78.4,48.4,30.06,NNW,339,3.0,9.0,35,0.00,,,-99.99,Weather View 32 v70,2013-08-12 19:10:00,
2013-08-12 14:15:00,77.9,48.0,30.06,NNW,335,5.0,9.0,35,0.00,,,-99.99,Weather View 32 v70,2013-08-12 19:15:00,
2013-08-12 14:25:00,77.4,47.5,30.06,North,0,0.0,9.0,35,0.00,,,-99.99,Weather View 32 v70,2013-08-12 19:25:00,
2013-08-12 14:30:00,77.9,48.7,30.06,NNW,346,4.0,9.0,36,0.00,,,-99.99,Weather View 32 v70,2013-08-12 19:30:00,
2013-08-12 14:35:00,78.8,49.5,30.06,NE,52,3.0,9.0,36,0.00,,,-99.99,Weather View 32 v70,2013-08-12 19:35:00,
2013-08-12 14:40:00,79.7,48.8,30.06,North,349,5.0,9.0,34,0.00,,,-99.99,Weather View 32 v70,2013-08-12 19:40:00,
2013-08-12 14:50:00,79.7,48.0,30.06,WNW,300,4.0,9.0,33,0.00,,,-99.99,Weather View 32 v70,2013-08-12 19:50:00,
2013-08-12 14:55:00,79.3,47.6,30.06,WNW,295,4.0,9.0,33,0.00,,,-99.99,Weather View 32 v70,2013-08-12 19:55:00,
2013-08-12 15:00:00,79.3,49.2,30.06,NNW,331,5.0,8.0,35,0.00,,,-99.99,Weather View 32 v70,2013-08-12 20:00:00,
2013-08-12 15:10:00,80.2,50.0,30.06,NNE,13,4.0,8.0,35,0.00,,,-99.99,Weather View 32 v70,2013-08-12 20:10:00,
2013-08-12 15:15:00,80.4,50.2,30.06,North,3,4.0,8.0,35,0.00,,,-99.99,Weather View 32 v70,2013-08-12 20:15:00,
2013-08-12 15:20:00,80.2,48.4,30.06,North,353,4.0,8.0,33,0.00,,,-99.99,Weather View 32 v70,2013-08-12 20:20:00,
2013-08-12 15:30:00,80.2,48.4,30.06,NW,311,4.0,8.0,33,0.00,,,-99.99,Weather View 32 v70,2013-08-12 20:30:00,
2013-08-12 15:35:00,80.1,49.1,30.06,NW,320,4.0,8.0,34,0.00,,,-99.99,Weather View 32 v70,2013-08-12 20:35:00,
2013-08-12 15:45:00,80.8,48.1,30.06,NNW,334,3.0,8.0,32,0.00,,,-99.99,Weather View 32 v70,2013-08-12 20:45:00,
2013-08-12 15:50:00,80.6,47.9,30.06,NNE,30,3.0,8.0,32,0.00,,,-99.99,Weather View 32 v70,2013-08-12 20:50:00,
2013-08-12 16:00:00,80.8,48.9,30.03,North,357,0.0,8.0,33,0.00,,,-99.99,Weather View 32 v70,2013-08-12 21:00:00,
2013-08-12 16:05:00,80.8,48.9,30.03,NNW,329,3.0,8.0,33,0.00,,,-99.99,Weather View 32 v70,2013-08-12 21:05:00,
2013-08-12 16:14:00,80.8,48.1,30.03,NNW,330,5.0,8.0,32,0.00,,,-99.99,Weather View 32 v70,2013-08-12 21:14:00,
2013-08-12 16:20:00,80.1,48.3,30.06,North,349,0.0,9.0,33,0.00,,,-99.99,Weather View 32 v70,2013-08-12 21:20:00,
2013-08-12 16:30:00,80.8,48.1,30.03,North,349,3.0,9.0,32,0.00,,,-99.99,Weather View 32 v70,2013-08-12 21:30:00,
2013-08-12 16:35:00,81.1,48.4,30.03,NNW,335,0.0,9.0,32,0.00,,,-99.99,Weather View 32 v70,2013-08-12 21:35:00,
2013-08-12 16:40:00,81.0,48.2,30.03,North,2,2.0,9.0,32,0.00,,,-99.99,Weather View 32 v70,2013-08-12 21:40:00,
2013-08-12 16:50:00,80.8,48.1,30.03,NNW,334,8.0,9.0,32,0.00,,,-99.99,Weather View 32 v70,2013-08-12 21:50:00,
2013-08-12 16:55:00,80.4,46.9,30.03,NNW,331,4.0,9.0,31,0.00,,,-99.99,Weather View 32 v70,2013-08-12 21:55:00,
2013-08-12 17:00:00,79.9,47.3,30.03,North,357,2.0,9.0,32,0.00,,,-99.99,Weather View 32 v70,2013-08-12 22:00:00,
2013-08-12 17:10:00,80.6,47.9,30.03,NNE,20,4.0,9.0,32,0.00,,,-99.99,Weather View 32 v70,2013-08-12 22:10:00,
2013-08-12 17:20:00,81.1,47.5,30.03,North,8,3.0,9.0,31,0.00,,,-99.99,Weather View 32 v70,2013-08-12 22:20:00,
2013-08-12 17:30:00,80.4,47.8,30.03,NE,54,3.0,9.0,32,0.00,,,-99.99,Weather View 32 v70,2013-08-12 22:30:00,
2013-08-12 17:40:00,80.4,47.8,30.03,North,4,0.0,9.0,32,0.00,,,-99.99,Weather View 32 v70,2013-08-12 22:40:00,
2013-08-12 17:45:00,80.6,47.1,30.03,NNW,346,3.0,8.0,31,0.00,,,-99.99,Weather View 32 v70,2013-08-12 22:45:00,
2013-08-12 17:50:00,80.2,46.8,30.03,NW,319,6.0,8.0,31,0.00,,,-99.99,Weather View 32 v70,2013-08-12 22:50:00,
2013-08-12 18:00:00,79.7,47.1,30.03,NE,36,2.0,8.0,32,0.00,,,-99.99,Weather View 32 v70,2013-08-12 23:00:00,
2013-08-12 18:10:00,80.1,46.6,30.03,NE,39,3.0,8.0,31,0.00,,,-99.99,Weather View 32 v70,2013-08-12 23:10:00,
2013-08-12 18:15:00,80.1,46.6,30.03,NNW,343,3.0,8.0,31,0.00,,,-99.99,Weather View 32 v70,2013-08-12 23:15:00,
2013-08-12 18:25:00,79.7,46.3,30.03,ENE,75,4.0,8.0,31,0.00,,,-99.99,Weather View 32 v70,2013-08-12 23:25:00,
2013-08-12 18:30:00,79.3,46.0,30.03,North,6,4.0,8.0,31,0.00,,,-99.99,Weather View 32 v70,2013-08-12 23:30:00,
2013-08-12 18:35:00,79.2,45.0,30.03,North,353,5.0,8.0,30,0.00,,,-99.99,Weather View 32 v70,2013-08-12 23:35:00,
2013-08-12 18:40:00,79.0,44.8,30.03,NW,320,4.0,8.0,30,0.00,,,-99.99,Weather View 32 v70,2013-08-12 23:40:00,
2013-08-12 18:50:00,78.6,44.5,30.03,North,11,5.0,8.0,30,0.00,,,-99.99,Weather View 32 v70,2013-08-12 23:50:00,
2013-08-12 18:55:00,78.4,44.3,30.03,ENE,58,3.0,8.0,30,0.00,,,-99.99,Weather View 32 v70,2013-08-12 23:55:00,
2013-08-12 19:00:00,78.3,44.2,30.06,NNW,342,2.0,6.0,30,0.00,,,-99.99,Weather View 32 v70,2013-08-13 00:00:00,
2013-08-12 19:10:00,77.7,43.7,30.06,NNW,339,5.0,6.0,30,0.00,,,-99.99,Weather View 32 v70,2013-08-13 00:10:00,
2013-08-12 19:16:00,77.4,44.3,30.06,NE,48,3.0,8.0,31,0.00,,,-99.99,Weather View 32 v70,2013-08-13 00:16:00,
2013-08-12 19:25:00,76.8,43.8,30.06,North,357,3.0,8.0,31,0.00,,,-99.99,Weather View 32 v70,2013-08-13 00:25:00,
2013-08-12 19:30:00,76.5,43.5,30.06,NNE,16,0.0,8.0,31,0.00,,,-99.99,Weather View 32 v70,2013-08-13 00:30:00,
2013-08-12 19:40:00,75.9,43.0,30.06,NE,38,2.0,8.0,31,0.00,,,-99.99,Weather View 32 v70,2013-08-13 00:40:00,
2013-08-12 19:45:00,75.4,42.6,30.06,NNE,32,3.0,8.0,31,0.00,,,-99.99,Weather View 32 v70,2013-08-13 00:45:00,
2013-08-12 19:55:00,74.1,42.3,30.06,North,353,0.0,8.0,32,0.00,,,-99.99,Weather View 32 v70,2013-08-13 00:55:00,
2013-08-12 20:00:00,73.6,41.8,30.06,NNE,24,3.0,8.0,32,0.00,,,-99.99,Weather View 32 v70,2013-08-13 01:00:00,
2013-08-12 20:05:00,73.2,42.3,30.06,North,349,2.0,8.0,33,0.00,,,-99.99,Weather View 32 v70,2013-08-13 01:05:00,
2013-08-12 20:15:00,72.3,41.5,30.06,NNW,328,3.0,7.0,33,0.00,,,-99.99,Weather View 32 v70,2013-08-13 01:15:00,
2013-08-12 20:25:00,71.6,40.9,30.06,NNE,23,3.0,6.0,33,0.00,,,-99.99,Weather View 32 v70,2013-08-13 01:25:00,
2013-08-12 20:30:00,71.2,40.6,30.06,NNE,18,2.0,6.0,33,0.00,,,-99.99,Weather View 32 v70,2013-08-13 01:30:00,
2013-08-12 20:35:00,70.9,40.3,30.06,North,7,3.0,6.0,33,0.00,,,-99.99,Weather View 32 v70,2013-08-13 01:35:00,
2013-08-12 20:45:00,70.5,40.7,30.06,ENE,57,3.0,6.0,34,0.00,,,-99.99,Weather View 32 v70,2013-08-13 01:45:00,
2013-08-12 20:50:00,70.2,40.4,30.06,NNE,13,0.0,6.0,34,0.00,,,-99.99,Weather View 32 v70,2013-08-13 01:50:00,
2013-08-12 21:00:00,69.6,39.9,30.06,NNE,31,3.0,5.0,34,0.00,,,-99.99,Weather View 32 v70,2013-08-13 02:00:00,
2013-08-12 21:05:00,69.4,40.5,30.06,North,3,2.0,5.0,35,0.00,,,-99.99,Weather View 32 v70,2013-08-13 02:05:00,
2013-08-12 21:10:00,69.3,40.4,30.06,North,353,2.0,5.0,35,0.00,,,-99.99,Weather View 32 v70,2013-08-13 02:10:00,
2013-08-12 21:15:00,69.1,40.2,30.06,NNE,14,4.0,5.0,35,0.00,,,-99.99,Weather View 32 v70,2013-08-13 02:15:00,
2013-08-12 21:20:00,68.9,40.0,30.06,North,1,0.0,5.0,35,0.00,,,-99.99,Weather View 32 v70,2013-08-13 02:20:00,
2013-08-12 21:25:00,68.7,39.9,30.06,North,0,2.0,5.0,35,0.00,,,-99.99,Weather View 32 v70,2013-08-13 02:25:00,
2013-08-12 21:30:00,68.4,40.3,30.09,NNE,21,2.0,5.0,36,0.00,,,-99.99,Weather View 32 v70,2013-08-13 02:30:00,
2013-08-12 21:35:00,68.2,40.1,30.09,NNE,23,0.0,5.0,36,0.00,,,-99.99,Weather View 32 v70,2013-08-13 02:35:00,
2013-08-12 21:45:00,67.6,39.7,30.09,NE,51,0.0,5.0,36,0.00,,,-99.99,Weather View 32 v70,2013-08-13 02:45:00,
2013-08-12 21:50:00,67.6,39.7,30.09,North,357,0.0,5.0,36,0.00,,,-99.99,Weather View 32 v70,2013-08-13 02:50:00,
2013-08-12 21:55:00,67.5,40.2,30.09,NE,41,3.0,5.0,37,0.00,,,-99.99,Weather View 32 v70,2013-08-13 02:55:00,
2013-08-12 22:05:00,66.7,39.6,30.09,NW,322,4.0,5.0,37,0.00,,,-99.99,Weather View 32 v70,2013-08-13 03:05:00,
2013-08-12 22:10:00,66.4,39.3,30.09,NE,37,0.0,5.0,37,0.00,,,-99.99,Weather View 32 v70,2013-08-13 03:10:00,
2013-08-12 22:15:00,66.2,39.8,30.09,NE,34,3.0,4.0,38,0.00,,,-99.99,Weather View 32 v70,2013-08-13 03:15:00,
2013-08-12 22:25:00,65.5,39.8,30.09,North,10,2.0,4.0,39,0.00,,,-99.99,Weather View 32 v70,2013-08-13 03:25:00,
2013-08-12 22:30:00,65.1,39.5,30.09,NNE,15,4.0,4.0,39,0.00,,,-99.99,Weather View 32 v70,2013-08-13 03:30:00,
2013-08-12 22:35:00,64.9,39.3,30.09,NNE,19,2.0,4.0,39,0.00,,,-99.99,Weather View 32 v70,2013-08-13 03:35:00,
2013-08-12 22:40:00,64.8,39.8,30.09,NE,36,2.0,4.0,40,0.00,,,-99.99,Weather View 32 v70,2013-08-13 03:40:00,
2013-08-12 22:45:00,64.6,39.7,30.09,NNE,21,0.0,4.0,40,0.00,,,-99.99,Weather View 32 v70,2013-08-13 03:45:00,
2013-08-12 22:55:00,64.2,40.0,30.09,NNE,31,2.0,4.0,41,0.00,,,-99.99,Weather View 32 v70,2013-08-13 03:55:00,
2013-08-12 23:00:00,64.0,39.8,30.12,North,353,3.0,5.0,41,0.00,,,-99.99,Weather View 32 v70,2013-08-13 04:00:00,
2013-08-12 23:05:00,64.0,39.8,30.12,North,10,2.0,5.0,41,0.00,,,-99.99,Weather View 32 v70,2013-08-13 04:05:00,
2013-08-12 23:10:00,63.9,39.6,30.12,North,8,0.0,5.0,41,0.00,,,-99.99,Weather View 32 v70,2013-08-13 04:10:00,
2013-08-12 23:15:00,63.7,39.5,30.12,NNE,31,4.0,5.0,41,0.00,,,-99.99,Weather View 32 v70,2013-08-13 04:15:00,
2013-08-12 23:20:00,63.5,39.9,30.12,NNE,20,0.0,5.0,42,0.00,,,-99.99,Weather View 32 v70,2013-08-13 04:20:00,
2013-08-12 23:25:00,63.1,39.6,30.12,NNW,341,0.0,5.0,42,0.00,,,-99.99,Weather View 32 v70,2013-08-13 04:25:00,
2013-08-12 23:30:00,63.1,40.2,30.12,NE,47,0.0,5.0,43,0.00,,,-99.99,Weather View 32 v70,2013-08-13 04:30:00,
2013-08-12 23:40:00,62.6,39.7,30.12,NE,46,0.0,5.0,43,0.00,,,-99.99,Weather View 32 v70,2013-08-13 04:40:00,
2013-08-12 23:50:00,62.1,40.4,30.12,NNE,15,0.0,5.0,45,0.00,,,-99.99,Weather View 32 v70,2013-08-13 04:50:00,
2013-08-12 23:55:00,61.9,40.3,30.12,North,7,0.0,5.0,45,0.00,,,-99.99,Weather View 32 v70,2013-08-13 04:55:00,